NOAA NWS Hourly Roundups by Site

Regional Weather Roundup for Detroit, MI

To Select Another Site Choose from List

Select Site:  

000
ASUS43 KDTX 211610
RWRMI
MICHIGAN HOURLY REGIONAL WEATHER ROUNDUP
NATIONAL WEATHER SERVICE DETROIT/PONTIAC MI
1100 AM EST THU JAN 21 2021

NOTE: "FAIR" INDICATES FEW OR NO CLOUDS BELOW 12,000 FEET WITH NO
SIGNIFICANT WEATHER AND/OR OBSTRUCTION TO VISIBILITY.

MIZ047>049-052>055-059>063-066>070-074>076-081>083-211700-
SOUTHEAST LOWER MICHIGAN

CITY           SKY/WX    TMP DP  RH WIND       PRES   REMARKS
ADRIAN         SUNNY     35  25  66 W14G25    29.66S WCI  26
ALMA           MOSUNNY   38  28  67 W12G18    29.56F WCI  31
ANN ARBOR      SUNNY     36  27  69 W10       29.61F WCI  28
BAD AXE        CLOUDY    33  27  77 W15G22    29.51S WCI  23
CARO           SUNNY     36  28  74 SW15      29.53F WCI  26
DETROIT CITY   SUNNY     37  26  64 SW12G23   29.61S WCI  29
DETROIT        MOSUNNY   36  26  67 SW20      29.62F WCI  25
FLINT          MOSUNNY   38  27  64 W16G24    29.58S WCI  29
GROSSE ILE     SUNNY     37  28  69 SW14G23   29.62F WCI  28
HILLSDALE      SUNNY     35  25  67 SW13G22   29.64S WCI  26
HOWELL         SUNNY     36  28  75 W16G22    29.59S WCI  26

CITY           SKY/WX    TMP DP  RH WIND       PRES   REMARKS
JACKSON        SUNNY     35  25  66 SW20G32   29.61S WCI  24
LAMBERTVILLE   SUNNY     37  27  69 SW13G22   29.67F WCI  28
LANSING        SUNNY     37  27  67 W22G30    29.59S WCI  26
LAPEER         PTSUNNY   36  28  70 W14G24    29.56F WCI  27
MASON          SUNNY     36  28  72 W15       29.59F WCI  27
MONROE         SUNNY     37  29  74 SW16G23   29.63F WCI  27
PONTIAC        PTSUNNY   36  26  67 W15G28    29.57S WCI  27
PORT HOPE        N/A     35  26  69 SW12G23   29.49R WCI  27
PORT HURON     PTSUNNY   36  27  69 SW8       29.58F WCI  29
TRI CITIES     SUNNY     37  27  67 W20G28    29.53F WCI  27
MIDLAND        SUNNY     38  27  64 W16       29.52F WCI  29
TROY           MOSUNNY   35  28  76 SW8       29.61S WCI  29
SAGINAW HB     SUNNY     36  27  69 W15G21    29.54F WCI  26
$$
MIZ043>046-050>051-056>058-064>065-071>073-077>080-211700-
SOUTHWEST LOWER MICHIGAN

CITY           SKY/WX    TMP DP  RH WIND       PRES   REMARKS
BATTLE CREEK   SUNNY     37  26  64 W18G30    29.63S WCI  27
BENTON HARBOR  SUNNY     37  27  67 W20G28    29.71R WCI  27
BIG RAPIDS     SUNNY     34  26  70 W17G24    29.52F WCI  24
COLDWATER      SUNNY     35  25  66 SW17G26   29.66F WCI  25
FREMONT        FAIR      37  26  65 W16G25    29.58S WCI  27
HOLLAND        SUNNY     38  25  59 W18G30    29.64  WCI  28
GRAND RAPIDS   MOSUNNY   38  27  64 W20G32    29.61R WCI  28
IONIA          FAIR      37  25  60 W20G31    29.57S WCI  27
KALAMAZOO      SUNNY     36  26  67 SW15G22   29.66S WCI  27
LUDINGTON      MOSUNNY   37  26  64 W10G20    29.56S WCI  29
MARSHALL       SUNNY     35  26  71 SW15      29.63S WCI  25
MOUNT PLEASANT SUNNY     37  26  62 W12       29.53S WCI  30
MUSKEGON       MOSUNNY   39  25  57 W15G25    29.61S WCI  31
SOUTH HAVEN    SUNNY     38  28  69 SW16G22   29.68S WCI  28
$$
MIZ016>042-211700-
NORTHERN LOWER MICHIGAN

CITY           SKY/WX    TMP DP  RH WIND       PRES   REMARKS
ALPENA         CLOUDY    39  26  59 W13G24    29.40S WCI  31
BEAVER ISLAND  CLOUDY    36  29  77 W17G24    29.41F WCI  26
BELLAIRE       PTSUNNY   37  27  67 SW6G20    29.47S WCI  33
CADILLAC       PTSUNNY   34  27  75 W12G20    29.47F WCI  25
CHARLEVOIX     CLOUDY    37  30  78 SW20G26   29.44S WCI  26
FRANKFORT      CLOUDY    35  26  69 W6        29.51F WCI  30
GAYLORD        CLOUDY    35  26  69 W18       29.42S WCI  24
HARBOR SPRINGS CLOUDY    36  31  82 SW14G23   29.42S WCI  27
HOUGHTON LAKE  MOSUNNY   33  26  75 W14G23    29.47S WCI  23
MANISTEE       CLOUDY    35  27  72 W16       29.53S WCI  25
OSCODA         CLOUDY    36  29  75 W13       29.45S WCI  28
PELLSTON       CLOUDY    38  28  67 W15G28    29.41S WCI  29
ROGERS CITY    CLOUDY    38  25  59 W12G21    29.40S WCI  30
TRAVERSE CITY  PTSUNNY   37  27  67 W16G28    29.47F WCI  28
$$
MIZ007>008-015-211700-
EASTERN UPPER MICHIGAN

CITY           SKY/WX    TMP DP  RH WIND       PRES   REMARKS
KINROSS        CLOUDY    35  26  69 W15       29.37R WCI  25
MACKINAC ISLAN CLOUDY    36  29  76 SW15G22   29.38S WCI  27
NEWBERRY       CLOUDY    33  28  82 W6        29.37R WCI  27
S. S. MARIE    PTSUNNY   36  26  67 NW14G26   29.33F WCI  27
MUNISING         N/A     36  25  64 W7        29.38S WCI  30
$$
MIZ004>006-011>014-085-211700-
CENTRAL UPPER MICHIGAN

CITY           SKY/WX    TMP DP  RH WIND       PRES   REMARKS
MANISTIQUE     CLOUDY    35  26  69 W7        29.40S WCI  29
ESCANABA       PTSUNNY   35  24  64 W14       29.42F WCI  26
SAWYER-GWINN   PTSUNNY   32  25  74 W12G17    29.37S WCI  23
$$
MIZ001>003-009>011-084-211700-
WESTERN UPPER MICHIGAN

CITY           SKY/WX    TMP DP  RH WIND       PRES   REMARKS
IRON MOUNTAIN  PTSUNNY   32  22  66 W15G31    29.40S WCI  22
HOUGHTON       HVY SNOW  32  27  81 W24G37    29.35R VSB 1/4 WCI  19
COPPER HARBOR    N/A     33  28  81 NE12      29.35S WCI  24
IRONWOOD       FLURRIES  28  23  81 W20       29.46R WCI  15
$$

ABBREVIATIONS USED IN REMARKS
   TC - TEMPERATURE IN CELSIUS
  WCI - WIND CHILL INDEX
   HX - HEAT INDEX
  VSB - VISIBILITY



 

View Past Reports for Detroit, MI.

Products Courtesy of NOAA-NWS
NWS Information Parsing Script by Ken True at Saratoga Weather - Script by SE Lincoln Weather.